STARLINK-1679, 46557

Orbit data source: Space-Track

STARLINK-1679, 46557 is a payload satellite owned by SpaceX/Seattle (US) in LEO that was launched on Tue, 06 Oct 2020 UTC via an FALCON 9 launch vehicle from the Air Force Eastern Test Range (AFETR). Payload-class satellites include a variety of spacecraft equipped with specific instruments for various scientific and technological missions. These include communications satellites like Starlink; space stations such as the ISS; scientific satellites like the Hubble; Earth observation satellites from companies like Planet Labs, Umbra, and HawkEye 360; GPS; miniature CubeSats for education and research; and military/defense satellites.

Loading next visibility...
Identifier
46557, 2020-070AB
Orbit
LEO
Country
Flag of USUS
Related business
Manufacturer
SpaceX/Seattle
Mission
Partially operational Commercial Communications
Bus & Motor
STARLINK, Unknown motor
Mass
260 kg wet, ~248 kg dry
Launch date (UTC)
2020-10-06 (5 years ago)
Launch vehicle
FALCON 9
Launch site
Air Force Eastern Test Range (AFETR)
Object type
Payload
Rocket body
Debris
Shape & HBR
Box + 1 Pan, 10.1 m
Radar Cross Section
13.562 m², Large (>1 m²)

Expand to show TLE details & history
Last TLE update: 1 day ago

TLE from 1 day ago
0 STARLINK-1679
1 46557U 20070AB  25348.67869346  .00064056  00000-0  17574-2 0  9994
2 46557  53.0535 170.7657 0011261 150.5236 209.6404 15.36632555287076
Epoch: 2025-12-14T16:17Z
TLE epoch observation values (Epoch: 2025-12-14T16:17:19.114Z)
Latitude
0.00002°
Longitude
-157.15209°
Altitude
463.657 km
Speed
7.632 km/s
True Right ascension
11h 23m 03s
True Declination
0° 00' 00"
Sunlit
Object was in daylight at epoch
Visualization orbit readout
Latitude
Unknown
Longitude
Unknown
Altitude
Unknown
Speed
Unknown
Apparent Right ascension
Unknown
Apparent Declination
Unknown
Sunlit
N/A
Visualization observer readout
Local Sidereal Time
19:35:49
Azimuth
Unknown
Elevation
Unknown
Doppler factor
Unknown
Orbital elements
Apogee altitude
464.046 km
Perigee altitude
448.654 km
Semi-major axis
6,834.487 km
Eccentricity
0.00113
Inclination
53.0535°
RAAN
170.7657°
Arg. of periapsis
150.5236°
True anomaly
209.57666°
Mean anomaly
209.6404°
Eccentric anomaly
209.60852°
Mean motion
3.84135 °/min
Orbital period
93.72 mins
BSTAR
0.0017574
Loading maneuver chart data...
Computing Atmospheric mass density...
Loading historical data...
Loading historical data...
Loading historical data...
Loading historical data...
Loading historical data...
Loading historical data...
Loading historical data...

Documentation

Showing up to 5 results
|